Regional Weather Roundup
Issued by NWS

Home | Current Version | Previous Version | Graphics & Text | Print | Product List | Glossary On
Versions: 1 2 3 4 5 6 7 8 9 10 11 12 13 14 15 16 17 18 19 20 21 22 23 24 25 26 27 28 29 30 31 32 33 34 35 36 37 38 39 40 41 42 43 44 45 46 47 48 49 50
000
ASUS43 KIND 260859
RWRIN

WEATHER ROUNDUP FOR INDIANA
NATIONAL WEATHER SERVICE INDIANAPOLIS IN
400 AM EST FRI DEC 26 2014

NOTE: "FAIR" INDICATES FEW OR NO CLOUDS BELOW 12,000 FEET WITH NO
SIGNIFICANT WEATHER AND/OR OBSTRUCTIONS TO VISIBILITY.

* - STATION DOES NOT REPORT WEATHER SUCH AS PRECIPITATION OR FOG.

+ - STATION NOT QUALITY CONTROLLED BY THE NATIONAL WEATHER SERVICE.
    USE DATA WITH CAUTION...ESPECIALLY DEWPOINT AND RELATIVE
    HUMIDITY OBSERVATIONS.

INZ001>003-010>013-019-020-261000-
NORTHWEST INDIANA

CITY           SKY/WX    TMP DP  RH WIND       PRES   REMARKS
GARY /AIRPORT/ CLEAR     38  30  72 S8        30.03F
KNOX *+        CLEAR     34  29  80 S12       30.05F WCI  26
VALPARAISO     NOT AVBL

$$

LMZ046-743>745-261000-
SOUTHERN LAKE MICHIGAN

STATION/POSITION TIME  TEMP WIND        PRES
                       AIR  DIR/SP/G
                 (UTC) (F)  (DEG/KT/KT) (MB)
MICHIGAN CITY    0800   37  160/ 14/ 19   N/A

$$

INZ004-005-014>016-021>024-261000-
NORTH CENTRAL INDIANA

CITY           SKY/WX    TMP DP  RH WIND       PRES   REMARKS
GOSHEN         CLEAR     35  31  85 S10       30.08F WCI  27
SOUTH BEND     NOT AVBL
WARSAW +       CLEAR     34  32  93 S6        30.09F WCI  29

$$

INZ006>009-017-018-025>027-261000-
NORTHEAST INDIANA

CITY           SKY/WX    TMP DP  RH WIND       PRES   REMARKS
ANGOLA *+      CLEAR     32  30  93 S8        30.09F WCI  25
FORT WAYNE     CLEAR     32  30  92 S8        30.14S WCI  25

$$

INZ028-029-035-036-043>045-051>053-261000-
WEST CENTRAL INDIANA

CITY           SKY/WX    TMP DP  RH WIND       PRES   REMARKS
GREENCASTLE +  CLEAR     37  30  75 SW8G16    30.14S
LAFAYETTE      CLEAR     35  31  85 S6        30.10S WCI  30
TERRE HAUTE    CLEAR     37  32  82 S14       30.14R

$$

INZ030>032-037>040-046>048-054>057-064-065-261000-
CENTRAL INDIANA

CITY           SKY/WX    TMP DP  RH WIND       PRES   REMARKS
CP ATTERBURY + CLEAR     30  28  93 MISG      30.19R
INDIANAPOLIS   CLEAR     31  29  92 S9        30.15R WCI  23
-EAGLE CREEK   CLEAR     32  30  92 S5        30.14S WCI  27
KOKOMO *+      CLEAR     34  28  80 S13       30.12F WCI  25
MT COMFORT *+  CLEAR     34  34 100 S9        30.16S WCI  26
SHELBYVILLE    CLEAR     35  30  82 S9        30.17R WCI  28

$$

INZ033-034-041-042-049-050-058-059-261000-
EAST CENTRAL INDIANA

CITY           SKY/WX    TMP DP  RH WIND       PRES   REMARKS
MUNCIE         CLEAR     34  30  85 S9        30.14F WCI  27

$$

INZ060-061-067>069-081>083-085>088-261000-
SOUTHWEST INDIANA

CITY           SKY/WX    TMP DP  RH WIND       PRES   REMARKS
EVANSVILLE     CLEAR     38  32  79 S5        30.20R
HUNTINGBURG *+ CLEAR     37  30  75 S7        30.20S

$$

INZ062-063-066-070>080-084-089>092-261000-
SOUTH CENTRAL AND SOUTHEAST INDIANA

CITY           SKY/WX    TMP DP  RH WIND       PRES   REMARKS
BLOOMINGTON    CLEAR     31  29  92 S5        30.17R WCI  26
SEYMOUR +      CLEAR     34  32  93 S6        30.20R WCI  29

$$




USA.gov is the U.S. government's official web portal to all federal, state and local government web resources and services.